Date String (YYYY-MM-DD hh:mm:ss) UTC,Instrument flags,absolute air pressure of the measurement (hPa),sample flow rate (lpm),inlet stack bypass flow (lpm),air temperature of the measurement (°C),ambient temperature measured by the external sensor (°C),aerosol sample conditioner tube jacket temperature (°C),OPC LED temperature (°C),internal box temperature (°C),relative humidity of the measurement (%),span deviation,mass concentration of particles derived from Lorenz-Mie calculation of OPC scattering (μg/m³),mass concentration of particles derived from Lorenz-Mie calculation of OPC scattering (μg/m³),mass concentration of particles derived from Lorenz-Mie calculation of OPC scattering (μg/m³)
DateTimeUTC,F1_M11,P_M11,Q1_M11,Q2_M11,T1_M11,T2_M11,T3_M11,T4_M11,T5_M11,U1_M11,ZSPAN_M11,X0_M11,X2_M11,X1_M11
2024-03-10 09:00:00,SystemResetWarning,0828.6,5.01,000.00,018.6,018.1,000.0,027.0,020.3,09.4,0000.0,0006.18,0002.51,0001.55
2024-03-10 09:01:00,SystemResetWarning,0828.6,4.99,000.00,018.5,018.0,000.0,027.0,020.2,09.4,0000.0,0007.10,0002.55,0001.55
2024-03-10 09:02:00,SystemResetWarning,0828.6,5.00,000.00,018.5,017.9,000.0,027.0,020.2,09.5,0000.0,0007.67,0002.53,0001.54
2024-03-10 09:03:00,SystemResetWarning,0828.5,5.00,000.00,018.5,017.8,000.0,027.0,020.2,09.6,0000.0,0007.46,0002.55,0001.55
2024-03-10 09:04:00,SystemResetWarning,0828.6,5.00,000.00,018.5,017.8,000.0,027.0,020.1,09.6,0000.0,0007.41,0002.62,0001.54
2024-03-10 09:05:00,SystemResetWarning,0828.6,4.99,000.00,018.5,017.7,000.0,027.0,020.1,09.6,0000.0,0007.29,0002.58,0001.53
2024-03-10 09:06:00,SystemResetWarning,0828.5,5.01,000.00,018.4,017.7,000.0,026.9,020.1,09.6,0000.0,0007.43,0002.59,0001.54
2024-03-10 09:07:00,SystemResetWarning,0828.6,5.01,000.00,018.4,017.6,000.0,026.9,020.0,09.7,0000.0,0007.47,0002.63,0001.57
2024-03-10 09:08:00,SystemResetWarning,0828.6,5.00,000.00,018.4,017.5,000.0,026.9,020.0,09.5,0000.0,0007.70,0002.66,0001.58
2024-03-10 09:09:00,SystemResetWarning,0828.6,4.99,000.00,018.4,017.5,000.0,026.9,020.0,09.6,0000.0,0007.81,0002.73,0001.61
2024-03-10 09:10:00,SystemResetWarning,0828.6,5.00,000.00,018.4,017.4,000.0,027.0,020.0,09.7,0000.0,0007.53,0002.75,0001.63
2024-03-10 09:11:00,SystemResetWarning,0828.5,5.02,000.00,018.3,017.4,000.0,027.0,020.0,09.6,0000.0,0007.61,0002.74,0001.65
2024-03-10 09:12:00,SystemResetWarning,0828.6,4.99,000.00,018.3,017.4,000.0,027.0,020.0,09.6,0000.0,0006.84,0002.72,0001.68
2024-03-10 09:13:00,SystemResetWarning,0828.6,4.99,000.00,018.3,017.3,000.0,027.0,020.0,09.6,0000.0,0006.00,0002.74,0001.71
2024-03-10 09:14:00,SystemResetWarning,0828.5,4.99,000.00,018.3,017.3,000.0,027.0,020.0,09.8,0000.0,0005.97,0002.72,0001.72
2024-03-10 09:15:00,SystemResetWarning,0828.5,5.00,000.00,018.3,017.2,000.0,027.0,020.0,09.8,0000.0,0005.94,0002.70,0001.74
2024-03-10 09:16:00,SystemResetWarning,0828.5,5.00,000.00,018.3,017.2,000.0,027.0,020.0,09.7,0000.0,0006.07,0002.76,0001.77
2024-03-10 09:17:00,SystemResetWarning,0828.5,5.01,000.00,018.3,017.2,000.0,027.0,020.0,09.6,0000.0,0005.88,0002.78,0001.79
2024-03-10 09:18:00,SystemResetWarning,0828.5,4.99,000.00,018.3,017.1,000.0,027.0,020.0,09.6,0000.0,0005.99,0002.77,0001.80
2024-03-10 09:19:00,SystemResetWarning,0828.5,4.99,000.00,018.3,017.1,000.0,027.0,020.0,09.5,0000.0,0005.86,0002.76,0001.81
2024-03-10 09:20:00,SystemResetWarning,0828.5,5.00,000.00,018.3,017.1,000.0,027.0,020.0,09.6,0000.0,0005.86,0002.73,0001.82
2024-03-10 09:21:00,SystemResetWarning,0828.4,5.00,000.00,018.3,017.1,000.0,027.0,020.0,09.8,0000.0,0005.71,0002.67,0001.82
2024-03-10 09:22:00,SystemResetWarning,0828.4,5.00,000.00,018.3,017.1,000.0,027.0,020.0,09.9,0000.0,0005.52,0002.73,0001.83
2024-03-10 09:23:00,SystemResetWarning,0828.5,5.00,000.00,018.2,017.1,000.0,027.0,020.0,10.0,0000.0,0005.66,0002.79,0001.82
2024-03-10 09:24:00,SystemResetWarning,0828.4,5.00,000.00,018.2,017.1,000.0,027.0,020.0,10.1,0000.0,0005.53,0002.74,0001.82
2024-03-10 09:25:00,SystemResetWarning,0828.4,5.00,000.00,018.2,017.1,000.0,027.0,020.0,10.0,0000.0,0005.72,0002.74,0001.82
2024-03-10 09:26:00,SystemResetWarning,0828.4,5.00,000.00,018.2,017.1,000.0,027.0,020.0,10.0,0000.0,0006.15,0002.74,0001.83
2024-03-10 09:27:00,SystemResetWarning,0828.4,5.00,000.00,018.2,017.2,000.0,027.0,020.0,10.0,0000.0,0006.90,0002.75,0001.82
2024-03-10 09:28:00,SystemResetWarning,0828.4,5.01,000.00,018.4,017.9,000.0,027.1,020.4,09.8,0000.0,0007.05,0002.76,0001.82
2024-03-10 09:29:00,SystemResetWarning,0828.4,4.98,000.00,018.6,018.8,000.0,027.1,020.8,09.6,0000.0,0006.99,0002.76,0001.83
2024-03-10 09:30:00,SystemResetWarning,0828.4,5.00,000.00,018.7,018.8,000.0,027.1,020.8,09.5,0000.0,0006.70,0002.77,0001.84
2024-03-10 09:31:00,SystemResetWarning,0828.4,5.00,000.00,018.7,018.6,000.0,027.0,020.7,09.5,0000.0,0006.67,0002.80,0001.83
2024-03-10 09:32:00,SystemResetWarning,0828.4,5.00,000.00,018.7,018.4,000.0,027.0,020.5,09.4,0000.0,0006.65,0002.81,0001.85
2024-03-10 09:33:00,SystemResetWarning,0828.4,5.00,000.00,018.6,018.3,000.0,027.0,020.4,09.5,0000.0,0007.45,0002.78,0001.86
2024-03-10 09:34:00,SystemResetWarning,0828.4,5.00,000.00,018.6,018.1,000.0,027.0,020.3,09.4,0000.0,0007.70,0002.75,0001.87
2024-03-10 09:35:00,SystemResetWarning,0828.4,5.00,000.00,018.6,017.9,000.0,027.0,020.2,09.4,0000.0,0007.78,0002.78,0001.88
2024-03-10 09:36:00,SystemResetWarning,0828.3,5.00,000.00,018.5,017.8,000.0,027.0,020.1,09.4,0000.0,0007.82,0002.86,0001.87
2024-03-10 09:37:00,SystemResetWarning,0828.4,5.00,000.00,018.5,017.7,000.0,027.0,020.1,09.4,0000.0,0007.55,0002.83,0001.86
2024-03-10 09:38:00,SystemResetWarning,0828.3,5.01,000.00,018.4,017.5,000.0,027.0,020.0,09.4,0000.0,0007.07,0002.82,0001.86
2024-03-10 09:39:00,SystemResetWarning,0828.3,5.01,000.00,018.4,017.4,000.0,027.0,020.0,09.5,0000.0,0007.21,0002.86,0001.86
2024-03-10 09:40:00,SystemResetWarning,0828.3,4.99,000.00,018.4,017.4,000.0,027.0,020.0,09.4,0000.0,0007.16,0002.85,0001.87
2024-03-10 09:41:00,SystemResetWarning,0828.3,4.99,000.00,018.4,017.3,000.0,027.0,020.0,09.4,0000.0,0007.17,0002.89,0001.87
2024-03-10 09:42:00,SystemResetWarning,0828.3,4.99,000.00,018.3,017.2,000.0,027.0,020.0,09.6,0000.0,0007.30,0002.86,0001.87
2024-03-10 09:43:00,SystemResetWarning,0828.4,5.01,000.00,018.3,017.2,000.0,027.0,020.0,09.5,0000.0,0007.26,0002.85,0001.86
2024-03-10 09:44:00,SystemResetWarning,0828.3,5.01,000.00,018.3,017.2,000.0,027.0,020.0,09.3,0000.0,0006.13,0002.87,0001.85
2024-03-10 09:45:00,SystemResetWarning,0828.3,4.99,000.00,018.3,017.2,000.0,027.0,020.0,09.2,0000.0,0005.50,0002.82,0001.85
2024-03-10 09:46:00,SystemResetWarning,0828.3,4.99,000.00,018.3,017.2,000.0,027.0,020.0,09.3,0000.0,0005.31,0002.78,0001.85
2024-03-10 09:47:00,SystemResetWarning,0828.3,5.01,000.00,018.3,017.2,000.0,027.0,020.0,09.2,0000.0,0005.18,0002.72,0001.85
2024-03-10 09:48:00,SystemResetWarning,0828.3,5.01,000.00,018.3,017.1,000.0,027.0,020.0,09.1,0000.0,0006.99,0002.80,0001.86
2024-03-10 09:49:00,SystemResetWarning,0828.3,5.00,000.00,018.3,017.1,000.0,027.0,020.0,09.1,0000.0,0007.12,0002.79,0001.86
2024-03-10 09:50:00,SystemResetWarning,0828.2,5.00,000.00,018.3,017.1,000.0,027.0,020.0,09.1,0000.0,0007.56,0002.81,0001.87
2024-03-10 09:51:00,SystemResetWarning,0828.3,5.00,000.00,018.3,017.1,000.0,027.0,020.0,09.1,0000.0,0007.86,0002.82,0001.85
2024-03-10 09:52:00,SystemResetWarning,0828.2,4.99,000.00,018.3,017.1,000.0,027.0,020.0,09.1,0000.0,0007.79,0002.74,0001.83
2024-03-10 09:53:00,SystemResetWarning,0828.2,5.00,000.00,018.3,017.1,000.0,027.0,020.0,09.1,0000.0,0007.70,0002.68,0001.81
2024-03-10 09:54:00,SystemResetWarning,0828.3,5.01,000.00,018.2,017.2,000.0,027.0,020.0,09.3,0000.0,0007.86,0002.67,0001.79
2024-03-10 09:55:00,SystemResetWarning,0828.3,5.00,000.00,018.2,017.2,000.0,027.0,020.0,09.4,0000.0,0008.00,0002.70,0001.79
2024-03-10 09:56:00,SystemResetWarning,0828.3,5.01,000.00,018.2,017.1,000.0,027.0,020.0,09.2,0000.0,0008.00,0002.70,0001.77
2024-03-10 09:57:00,SystemResetWarning,0828.3,5.00,000.00,018.2,017.1,000.0,027.0,020.0,09.1,0000.0,0008.15,0002.76,0001.76
2024-03-10 09:58:00,SystemResetWarning,0828.2,5.00,000.00,018.3,017.6,000.0,027.1,020.2,09.5,0000.0,0008.48,0002.75,0001.76
2024-03-10 09:59:00,SystemResetWarning,0828.3,4.99,000.00,018.5,018.6,000.0,027.1,020.8,09.4,0000.0,0007.50,0002.69,0001.75
